This is the latest recevied weather packets stored in our database for station/object EA3FL-15. If no packets are shown the sender has not sent any weather packets the latest 10 day(s).
| Time | Temp. | Humidity | Pressure | Rain* | Wind** | Luminosity | Snow |
|---|---|---|---|---|---|---|---|
| 1777623898 | 20° C | 100% | 1024.7 hPa | - | - | - | - |
| 1777622998 | 19.44° C | 100% | 1024.5 hPa | - | - | - | - |
| 1777622098 | 18.89° C | 100% | 1024.3 hPa | - | - | - | - |
| 1777621198 | 18.89° C | 100% | 1024.3 hPa | - | - | - | - |
| 1777620297 | 18.33° C | 100% | 1024.2 hPa | - | - | - | - |
| 1777619397 | 18.33° C | 100% | 1024.2 hPa | - | - | - | - |
| 1777618497 | 17.78° C | 100% | 1024.2 hPa | - | - | - | - |
| 1777617597 | 17.22° C | 100% | 1024.3 hPa | - | - | - | - |
| 1777616697 | 17.22° C | 100% | 1024.2 hPa | - | - | - | - |
| 1777615797 | 17.22° C | 100% | 1024.1 hPa | - | - | - | - |
| 1777614896 | 17.22° C | 100% | 1023.9 hPa | - | - | - | - |
| 1777613996 | 16.67° C | 100% | 1023.7 hPa | - | - | - | - |
| 1777613098 | 16.67° C | 100% | 1023.7 hPa | - | - | - | - |
| 1777612196 | 16.67° C | 100% | 1023.7 hPa | - | - | - | - |
| 1777611296 | 16.67° C | 100% | 1023.4 hPa | - | - | - | - |
| 1777610396 | 16.67° C | 100% | 1023.3 hPa | - | - | - | - |
| 1777609496 | 16.67° C | 100% | 1023.3 hPa | - | - | - | - |
| 1777608596 | 16.11° C | 100% | 1023.3 hPa | - | - | - | - |
| 1777607695 | 16.67° C | 100% | 1023.4 hPa | - | - | - | - |
| 1777606795 | 16.11° C | 100% | 1023.2 hPa | - | - | - | - |
| 1777605895 | 16.11° C | 100% | 1023.2 hPa | - | - | - | - |
| 1777604995 | 16.11° C | 100% | 1023.1 hPa | - | - | - | - |
| 1777604095 | 16.11° C | 100% | 1023.2 hPa | - | - | - | - |
| 1777603195 | 16.67° C | 100% | 1023.3 hPa | - | - | - | - |
| 1777602299 | 16.67° C | 100% | 1023.4 hPa | - | - | - | - |
* Rain since midnight (hover to see other rain measurements)
** Current wind speed in m/s (hover to see current wind gust speed)